| time (UTC) | temp F | wind direction | speed MPH | gust MPH | rain 1hr in | rain 24hr in | rain mn in | humidity % | barometer mb |
| 20260902185003 | 60 | 0 | 0.0 | 0.0 | 0.00 | 0.00 | 0.00 | 79 | 1018.2 |
| 20260902184003 | 61 | 0 | 0.0 | 0.0 | 0.00 | 0.00 | 0.00 | 77 | 1018.2 |
| 20260902183003 | 62 | 0 | 0.0 | 0.0 | 0.00 | 0.00 | 0.00 | 74 | 1018.2 |
| 20260902182004 | 63 | 0 | 0.0 | 0.0 | 0.00 | 0.00 | 0.00 | 72 | 1018.1 |
| 20260902181003 | 64 | 0 | 0.0 | 0.0 | 0.00 | 0.00 | 0.00 | 69 | 1018.0 |
| 20260902180005 | 65 | 0 | 0.0 | 4.0 | 0.00 | 0.00 | 0.00 | 68 | 1017.9 |
| 20260902175003 | 65 | 0 | 0.0 | 3.0 | 0.00 | 0.00 | 0.00 | 66 | 1017.7 |
| 20260902174003 | 65 | 0 | 0.0 | 3.0 | 0.00 | 0.00 | 0.00 | 63 | 1017.7 |
| 20260902173003 | 66 | 0 | 0.0 | 1.0 | 0.00 | 0.00 | 0.00 | 62 | 1017.7 |
| 20260902172004 | 66 | 0 | 0.0 | 6.0 | 0.00 | 0.00 | 0.00 | 62 | 1017.6 |
| 20260902171003 | 67 | 0 | 0.0 | 8.0 | 0.00 | 0.00 | 0.00 | 61 | 1017.6 |
| 20260902170003 | 68 | 0 | 0.0 | 1.0 | 0.00 | 0.00 | 0.00 | 60 | 1017.5 |
| 20260902165003 | 68 | 0 | 0.0 | 6.0 | 0.00 | 0.00 | 0.00 | 58 | 1017.5 |
| 20260902164003 | 69 | 0 | 0.0 | 4.0 | 0.00 | 0.00 | 0.00 | 57 | 1017.5 |
| 20260902163003 | 69 | 0 | 0.0 | 4.0 | 0.00 | 0.00 | 0.00 | 57 | 1017.5 |
| 20260902162004 | 69 | 0 | 0.0 | 3.0 | 0.00 | 0.00 | 0.00 | 57 | 1017.5 |
| 20260902161003 | 70 | 0 | 0.0 | 4.0 | 0.00 | 0.00 | 0.00 | 57 | 1017.5 |
| 20260902160004 | 70 | 0 | 0.0 | 6.0 | 0.00 | 0.00 | 0.00 | 57 | 1017.5 |
| 20260902155003 | 71 | 0 | 0.0 | 6.0 | 0.00 | 0.00 | 0.00 | 56 | 1017.6 |
| 20260902154003 | 71 | 0 | 0.0 | 4.0 | 0.00 | 0.00 | 0.00 | 58 | 1017.7 |
| 20260902153003 | 71 | 0 | 0.0 | 8.0 | 0.00 | 0.00 | 0.00 | 56 | 1017.7 |
| 20260902152003 | 72 | 0 | 0.0 | 6.0 | 0.00 | 0.00 | 0.00 | 56 | 1017.7 |
| 20260902151003 | 73 | 0 | 0.0 | 8.0 | 0.00 | 0.00 | 0.00 | 55 | 1017.6 |
| 20260902150003 | 73 | 258 | 1.0 | 9.0 | 0.00 | 0.00 | 0.00 | 54 | 1017.6 |
| 20260902145003 | 72 | 0 | 0.0 | 8.0 | 0.00 | 0.00 | 0.00 | 55 | 1017.7 |
| 20260902144003 | 72 | 0 | 0.0 | 6.0 | 0.00 | 0.00 | 0.00 | 55 | 1017.7 |
| 20260902143003 | 71 | 295 | 1.0 | 8.0 | 0.00 | 0.01 | 0.00 | 57 | 1018.0 |
| 20260902142003 | 72 | 296 | 1.0 | 8.0 | 0.00 | 0.01 | 0.00 | 57 | 1017.9 |
| 20260902141003 | 71 | 0 | 0.0 | 3.0 | 0.00 | 0.02 | 0.00 | 60 | 1017.9 |
| 20260902140003 | 72 | 0 | 0.0 | 9.0 | 0.00 | 0.03 | 0.00 | 58 | 1017.7 |
| 20260902135003 | 71 | 0 | 0.0 | 6.0 | 0.00 | 0.05 | 0.00 | 62 | 1017.7 |
| 20260902134003 | 71 | 0 | 0.0 | 6.0 | 0.00 | 0.07 | 0.00 | 61 | 1017.9 |
| 20260902133003 | 71 | 0 | 0.0 | 1.0 | 0.00 | 0.07 | 0.00 | 64 | 1017.9 |
| 20260902132003 | 71 | 0 | 0.0 | 3.0 | 0.00 | 0.07 | 0.00 | 65 | 1017.7 |
| 20260902131003 | 71 | 0 | 0.0 | 1.0 | 0.00 | 0.07 | 0.00 | 65 | 1017.9 |
| 20260902130003 | 71 | 0 | 0.0 | 8.0 | 0.00 | 0.07 | 0.00 | 65 | 1017.9 |
| 20260902125003 | 70 | 0 | 0.0 | 4.0 | 0.00 | 0.07 | 0.00 | 67 | 1018.0 |
| 20260902124003 | 71 | 0 | 0.0 | 4.0 | 0.00 | 0.07 | 0.00 | 65 | 1018.0 |
| 20260902123003 | 71 | 0 | 0.0 | 6.0 | 0.00 | 0.07 | 0.00 | 65 | 1017.9 |
| 20260902122003 | 70 | 0 | 0.0 | 6.0 | 0.00 | 0.07 | 0.00 | 66 | 1018.0 |
| 20260902121003 | 69 | 0 | 0.0 | 6.0 | 0.00 | 0.07 | 0.00 | 68 | 1018.1 |
| 20260902120003 | 68 | 0 | 0.0 | 6.0 | 0.00 | 0.07 | 0.00 | 70 | 1018.2 |
| 20260902115003 | 68 | 0 | 0.0 | 6.0 | 0.00 | 0.07 | 0.00 | 72 | 1018.2 |
| 20260902114003 | 68 | 0 | 0.0 | 3.0 | 0.00 | 0.07 | 0.00 | 75 | 1018.2 |
| 20260902113003 | 68 | 0 | 0.0 | 9.0 | 0.00 | 0.07 | 0.00 | 73 | 1018.2 |
| 20260902112003 | 69 | 0 | 0.0 | 1.0 | 0.00 | 0.07 | 0.00 | 74 | 1018.1 |
| 20260902111003 | 69 | 0 | 0.0 | 3.0 | 0.00 | 0.07 | 0.00 | 76 | 1018.2 |
| 20260902110004 | 68 | 0 | 0.0 | 1.0 | 0.00 | 0.07 | 0.00 | 75 | 1018.2 |
| 20260902105003 | 68 | 0 | 0.0 | 4.0 | 0.00 | 0.07 | 0.00 | 75 | 1018.4 |
| 20260902104003 | 68 | 0 | 0.0 | 3.0 | 0.00 | 0.07 | 0.00 | 75 | 1018.4 |
| 20260902103003 | 69 | 0 | 0.0 | 3.0 | 0.00 | 0.07 | 0.00 | 74 | 1018.5 |
| 20260902102003 | 68 | 0 | 0.0 | 3.0 | 0.00 | 0.07 | 0.00 | 75 | 1018.6 |
| 20260902101003 | 67 | 0 | 0.0 | 1.0 | 0.00 | 0.07 | 0.00 | 79 | 1018.7 |
| 20260902100003 | 65 | 0 | 0.0 | 4.0 | 0.00 | 0.07 | 0.00 | 81 | 1018.7 |
| 20260902095003 | 65 | 0 | 0.0 | 3.0 | 0.00 | 0.07 | 0.00 | 82 | 1018.7 |
| 20260902094003 | 64 | 0 | 0.0 | 4.0 | 0.00 | 0.07 | 0.00 | 84 | 1018.6 |
| 20260902093003 | 63 | 0 | 0.0 | 4.0 | 0.00 | 0.07 | 0.00 | 84 | 1018.7 |
| 20260902092003 | 63 | 0 | 0.0 | 4.0 | 0.00 | 0.07 | 0.00 | 85 | 1018.6 |
| 20260902091003 | 62 | 0 | 0.0 | 6.0 | 0.00 | 0.07 | 0.00 | 84 | 1018.7 |
| 20260902090004 | 62 | 0 | 0.0 | 1.0 | 0.00 | 0.07 | 0.00 | 86 | 1018.7 |
| 20260902085003 | 62 | 0 | 0.0 | 3.0 | 0.00 | 0.07 | 0.00 | 86 | 1018.7 |
| 20260902084003 | 62 | 0 | 0.0 | 1.0 | 0.00 | 0.07 | 0.00 | 87 | 1018.6 |
| 20260902083003 | 62 | 0 | 0.0 | 1.0 | 0.00 | 0.07 | 0.00 | 87 | 1018.5 |
| 20260902082003 | 62 | 0 | 0.0 | 1.0 | 0.00 | 0.07 | 0.00 | 88 | 1018.5 |
| 20260902081003 | 60 | 0 | 0.0 | 1.0 | 0.00 | 0.07 | 0.00 | 88 | 1018.5 |
| 20260902080003 | 60 | 0 | 0.0 | 3.0 | 0.00 | 0.07 | 0.00 | 88 | 1018.6 |
| 20260902075003 | 59 | 0 | 0.0 | 0.0 | 0.00 | 0.07 | 0.00 | 86 | 1018.6 |
| 20260902074003 | 58 | 0 | 0.0 | 1.0 | 0.00 | 0.07 | 0.00 | 87 | 1018.5 |
| 20260902073003 | 58 | 0 | 0.0 | 3.0 | 0.00 | 0.07 | 0.00 | 85 | 1018.6 |
| 20260902072003 | 58 | 0 | 0.0 | 1.0 | 0.00 | 0.07 | 0.00 | 84 | 1018.6 |
| 20260902071003 | 58 | 0 | 0.0 | 3.0 | 0.00 | 0.07 | 0.00 | 82 | 1018.5 |
| 20260902070003 | 57 | 0 | 0.0 | 3.0 | 0.00 | 0.07 | 0.00 | 82 | 1018.5 |
| 20260902065003 | 56 | 0 | 0.0 | 1.0 | 0.00 | 0.07 | 0.00 | 82 | 1018.5 |
| 20260902064003 | 56 | 0 | 0.0 | 0.0 | 0.00 | 0.07 | 0.00 | 82 | 1018.6 |
| 20260902063003 | 55 | 0 | 0.0 | 0.0 | 0.00 | 0.07 | 0.00 | 82 | 1018.6 |
| 20260902062003 | 55 | 0 | 0.0 | 0.0 | 0.00 | 0.07 | 0.00 | 82 | 1018.6 |
| 20260902061003 | 55 | 0 | 0.0 | 0.0 | 0.00 | 0.07 | 0.00 | 82 | 1018.6 |
| 20260902060003 | 55 | 0 | 0.0 | 0.0 | 0.00 | 0.07 | 0.00 | 82 | 1018.6 |
| 20260902055003 | 55 | 0 | 0.0 | 1.0 | 0.00 | 0.07 | 0.00 | 82 | 1018.5 |
| 20260902054003 | 55 | 0 | 0.0 | 1.0 | 0.00 | 0.07 | 0.00 | 82 | 1018.5 |
| 20260902053003 | 54 | 0 | 0.0 | 0.0 | 0.00 | 0.07 | 0.00 | 83 | 1018.5 |
| 20260902052003 | 54 | 0 | 0.0 | 0.0 | 0.00 | 0.07 | 0.00 | 83 | 1018.6 |
| 20260902051003 | 54 | 0 | 0.0 | 0.0 | 0.00 | 0.07 | 0.00 | 83 | 1018.6 |
| 20260902050004 | 54 | 0 | 0.0 | 0.0 | 0.00 | 0.07 | 0.00 | 83 | 1018.6 |
| 20260902045003 | 54 | 0 | 0.0 | 0.0 | 0.00 | 0.07 | 0.00 | 82 | 1018.5 |
| 20260902044003 | 54 | 0 | 0.0 | 1.0 | 0.00 | 0.07 | 0.00 | 82 | 1018.2 |
| 20260902043003 | 53 | 0 | 0.0 | 0.0 | 0.00 | 0.07 | 0.00 | 83 | 1018.4 |
| 20260902042003 | 53 | 0 | 0.0 | 1.0 | 0.00 | 0.07 | 0.00 | 83 | 1018.5 |
| 20260902041003 | 53 | 0 | 0.0 | 0.0 | 0.00 | 0.07 | 0.00 | 83 | 1018.6 |
| 20260902040003 | 53 | 0 | 0.0 | 0.0 | 0.00 | 0.07 | 0.00 | 83 | 1018.7 |
| 20260902035003 | 53 | 0 | 0.0 | 0.0 | 0.00 | 0.07 | 0.00 | 83 | 1018.7 |
| 20260902034003 | 53 | 0 | 0.0 | 0.0 | 0.00 | 0.07 | 0.00 | 83 | 1018.7 |
| 20260902033003 | 53 | 0 | 0.0 | 0.0 | 0.00 | 0.07 | 0.00 | 83 | 1018.9 |
| 20260902032003 | 53 | 0 | 0.0 | 0.0 | 0.00 | 0.07 | 0.00 | 83 | 1018.7 |
| 20260902031003 | 53 | 0 | 0.0 | 0.0 | 0.00 | 0.07 | 0.00 | 83 | 1018.6 |
| 20260902030003 | 53 | 0 | 0.0 | 0.0 | 0.00 | 0.07 | 0.00 | 83 | 1018.7 |
| 20260902025003 | 52 | 0 | 0.0 | 0.0 | 0.00 | 0.07 | 0.00 | 83 | 1018.9 |
| 20260902024003 | 52 | 0 | 0.0 | 0.0 | 0.00 | 0.07 | 0.00 | 83 | 1019.0 |
| 20260902023003 | 52 | 0 | 0.0 | 0.0 | 0.00 | 0.07 | 0.00 | 84 | 1019.0 |
| 20260902022003 | 52 | 0 | 0.0 | 0.0 | 0.00 | 0.07 | 0.00 | 84 | 1019.0 |
| 20260902021003 | 52 | 0 | 0.0 | 0.0 | 0.00 | 0.07 | 0.00 | 84 | 1018.9 |
| 20260902020003 | 52 | 0 | 0.0 | 0.0 | 0.00 | 0.07 | 0.00 | 83 | 1018.9 |
| 20260902015003 | 52 | 0 | 0.0 | 0.0 | 0.00 | 0.07 | 0.00 | 83 | 1019.0 |
| 20260902014003 | 52 | 0 | 0.0 | 0.0 | 0.00 | 0.07 | 0.00 | 83 | 1019.0 |
| 20260902013003 | 52 | 0 | 0.0 | 0.0 | 0.00 | 0.07 | 0.00 | 83 | 1018.9 |
| 20260902012003 | 51 | 0 | 0.0 | 0.0 | 0.00 | 0.07 | 0.00 | 84 | 1018.9 |
| 20260902011003 | 51 | 0 | 0.0 | 0.0 | 0.00 | 0.07 | 0.00 | 84 | 1018.9 |
| 20260902010003 | 51 | 0 | 0.0 | 0.0 | 0.00 | 0.07 | 0.00 | 85 | 1018.7 |
| 20260902005003 | 51 | 0 | 0.0 | 0.0 | 0.00 | 0.07 | 0.00 | 85 | 1018.7 |
| 20260902004003 | 51 | 0 | 0.0 | 0.0 | 0.00 | 0.07 | 0.00 | 84 | 1018.9 |
| 20260902003003 | 52 | 0 | 0.0 | 1.0 | 0.00 | 0.07 | 0.00 | 84 | 1018.9 |
| 20260902002003 | 51 | 0 | 0.0 | 0.0 | 0.00 | 0.08 | 0.00 | 84 | 1019.0 |
| 20260902001003 | 51 | 0 | 0.0 | 0.0 | 0.00 | 0.09 | 0.00 | 84 | 1019.0 |
| 20260902000003 | 51 | 0 | 0.0 | 0.0 | 0.00 | 0.10 | 0.00 | 85 | 1019.1 |
| 20260901235003 | 51 | 0 | 0.0 | 0.0 | 0.00 | 0.10 | 0.00 | 85 | 1019.2 |
| 20260901234003 | 52 | 0 | 0.0 | 0.0 | 0.00 | 0.10 | 0.00 | 85 | 1019.1 |
| 20260901233003 | 52 | 0 | 0.0 | 0.0 | 0.00 | 0.10 | 0.00 | 84 | 1019.1 |
| 20260901232003 | 52 | 0 | 0.0 | 0.0 | 0.00 | 0.10 | 0.00 | 85 | 1019.1 |
| 20260901231003 | 52 | 0 | 0.0 | 0.0 | 0.00 | 0.10 | 0.00 | 86 | 1019.2 |
| 20260901230003 | 52 | 0 | 0.0 | 0.0 | 0.00 | 0.10 | 0.00 | 86 | 1019.1 |
| 20260901225003 | 52 | 0 | 0.0 | 0.0 | 0.00 | 0.10 | 0.00 | 86 | 1019.1 |
| 20260901224003 | 52 | 0 | 0.0 | 0.0 | 0.00 | 0.10 | 0.00 | 85 | 1019.1 |
| 20260901223003 | 52 | 0 | 0.0 | 0.0 | 0.00 | 0.10 | 0.00 | 86 | 1019.1 |
| 20260901222003 | 53 | 0 | 0.0 | 0.0 | 0.00 | 0.10 | 0.00 | 86 | 1019.1 |
| 20260901221003 | 53 | 0 | 0.0 | 0.0 | 0.00 | 0.10 | 0.00 | 86 | 1019.1 |
| 20260901220003 | 53 | 0 | 0.0 | 0.0 | 0.00 | 0.10 | 0.00 | 87 | 1019.0 |
| 20260901215003 | 54 | 0 | 0.0 | 1.0 | 0.00 | 0.10 | 0.00 | 86 | 1019.0 |
| 20260901214003 | 54 | 0 | 0.0 | 1.0 | 0.00 | 0.11 | 0.00 | 86 | 1019.1 |
| 20260901213003 | 55 | 0 | 0.0 | 0.0 | 0.00 | 0.11 | 0.00 | 85 | 1019.1 |
| 20260901212003 | 54 | 0 | 0.0 | 0.0 | 0.00 | 0.11 | 0.00 | 86 | 1019.0 |
| 20260901211003 | 55 | 0 | 0.0 | 0.0 | 0.00 | 0.11 | 0.00 | 87 | 1018.9 |
| 20260901210003 | 55 | 0 | 0.0 | 0.0 | 0.00 | 0.11 | 0.00 | 87 | 1019.0 |
| 20260901205003 | 55 | 0 | 0.0 | 0.0 | 0.00 | 0.11 | 0.00 | 87 | 1019.0 |
| 20260901204003 | 56 | 0 | 0.0 | 0.0 | 0.00 | 0.11 | 0.00 | 87 | 1018.9 |
| 20260901203003 | 56 | 0 | 0.0 | 0.0 | 0.00 | 0.11 | 0.00 | 87 | 1019.0 |
| 20260901202003 | 56 | 0 | 0.0 | 1.0 | 0.00 | 0.11 | 0.00 | 87 | 1019.0 |
| 20260901201003 | 57 | 0 | 0.0 | 0.0 | 0.00 | 0.11 | 0.00 | 87 | 1019.0 |
| 20260901200003 | 57 | 0 | 0.0 | 0.0 | 0.00 | 0.11 | 0.00 | 88 | 1018.9 |
| 20260901195003 | 57 | 0 | 0.0 | 0.0 | 0.00 | 0.11 | 0.00 | 87 | 1019.0 |
| 20260901194003 | 58 | 0 | 0.0 | 1.0 | 0.00 | 0.11 | 0.00 | 87 | 1018.9 |
| 20260901193003 | 58 | 0 | 0.0 | 3.0 | 0.00 | 0.11 | 0.00 | 87 | 1018.9 |
| 20260901192003 | 58 | 0 | 0.0 | 3.0 | 0.00 | 0.11 | 0.00 | 88 | 1018.9 |
| 20260901191003 | 59 | 0 | 0.0 | 0.0 | 0.00 | 0.11 | 0.00 | 87 | 1018.7 |
| 20260901190003 | 60 | 0 | 0.0 | 0.0 | 0.00 | 0.11 | 0.00 | 87 | 1018.7 |